#timestamp,LO_Frequency,Hit,StdDev 
1642500015.1,286047002.6,N
1642500016.0,286047002.6,N
1642500035.8,286047001.2,N
1642500055.6,286047000.5,N
1642500075.5,286047001.0,N
1642500095.3,286047000.5,N
1642500115.1,286047002.6,N
1642500135.9,286047002.5,N
1642500155.7,286047002.2,N
1642500175.6,286047002.6,N
1642500195.4,286047001.7,N
1642500215.2,286047002.3,N
1642500235.1,286046999.7,N
1642500236.0,286046999.7,N
1642500255.8,286047002.5,N
1642500275.6,286047000.7,N
1642500295.5,286046998.9,N
1642500315.3,286046999.7,N
1642500335.2,286047001.0,N
1642500355.9,286046999.7,N
1642500375.7,286047004.4,N
1642500395.6,286047002.9,N
1642500415.4,286047001.7,N
1642500435.2,286047002.6,N
1642500455.1,286046999.7,N
1642500456.0,286046999.7,N
1642500475.8,286047000.1,N
1642500495.7,286047000.3,N
1642500515.5,286046998.1,N
1642500535.3,286047000.9,N
1642500555.2,286047000.3,N
1642500575.0,286047000.1,N
1642500575.9,286047000.1,N
1642500595.7,286047002.0,N
1642500615.6,286047002.5,N
1642500635.4,286047002.6,N
1642500655.3,286047000.4,N
1642500675.1,286047002.3,N
1642500676.0,286047002.3,N
1642500695.8,286046998.4,N
1642500715.7,286046999.0,N
1642500735.5,286046998.6,N
1642500755.3,286046998.9,N
1642500775.2,286046998.9,N
1642500795.0,286047001.1,N
1642500795.9,286047001.1,N
1642500815.8,286047000.8,N
1642500835.6,286047001.1,N
1642500855.4,286046998.2,N
1642500875.3,286046998.4,N
1642500895.1,286047000.1,N
1642500915.8,286046999.8,N
1642500935.7,286047002.7,N
1642500955.5,286047002.4,N
1642500975.4,286047000.4,N
1642500995.2,286047002.7,N
1642501015.0,286047000.1,N
1642501015.9,286047000.1,N
1642501035.8,286047002.2,N
1642501055.6,286047001.3,N
1642501075.4,286047003.4,N
1642501095.3,286047001.6,N
1642501115.1,286047003.1,N
1642501135.9,286047001.4,N
1642501155.7,286047002.7,N
1642501175.5,286047004.3,N
1642501195.4,286047002.0,N
1642501215.2,286047002.2,N
1642501235.0,286047003.8,N
1642501236.0,286047003.8,N
1642501255.8,286047004.8,N
1642501275.6,286047005.3,N
1642501295.5,286047006.0,Y
1642501315.3,286047002.8,P
1642501335.1,286046999.8,N
1642501355.9,286046998.6,N
1642501375.7,286047000.5,N
1642501395.6,286047000.7,N
1642501415.4,286047000.8,N
1642501435.2,286046998.3,N
1642501455.1,286046998.7,N
1642501456.0,286046998.7,N
1642501475.8,286046998.4,N
1642501495.6,286046996.9,N
1642501515.5,286046997.1,N
1642501535.3,286046999.1,N
1642501555.2,286046999.6,N
1642501575.9,286046995.1,Y
1642501595.7,286046995.2,P
1642501615.6,286046995.4,N
1642501635.4,286046998.0,N
1642501655.2,286046995.1,N
1642501675.1,286046996.2,N
1642501676.0,286046996.2,N
1642501695.8,286046993.3,Y
1642501715.7,286046997.3,P
1642501735.5,286046998.8,P
1642501755.3,286046998.7,N
1642501775.2,286047000.9,N
1642501795.0,286047000.4,N
1642501795.9,286047000.4,N
1642501815.7,286047000.7,N
1642501835.6,286047000.6,N
1642501855.4,286047000.4,N
1642501875.3,286046998.2,N
1642501895.1,286046998.8,N
1642501896.0,286046998.8,N
1642501915.8,286046998.8,N
1642501935.7,286047001.2,N
1642501955.5,286047000.2,N
1642501975.3,286046998.2,N
1642501995.2,286046999.7,N
1642502015.0,286047000.5,N
1642502015.9,286047000.5,N
1642502035.8,286047000.7,N
1642502055.6,286046999.7,N
1642502075.4,286047002.2,N
1642502095.3,286047002.8,N
1642502115.1,286047002.8,N
1642502135.8,286047000.1,N
1642502155.7,286047001.3,N
1642502175.5,286047002.3,N
1642502195.4,286047001.9,N
1642502215.2,286047004.3,N
1642502235.0,286047002.6,N
1642502235.9,286047002.6,N
1642502255.8,286046999.7,N
1642502275.6,286047000.0,N
1642502295.4,286047000.7,N
1642502315.3,286047001.6,N
1642502335.1,286047001.5,N
1642502355.9,286046999.9,N
1642502375.7,286046998.1,N
1642502395.5,286047002.4,N
1642502415.4,286047004.1,N
1642502435.2,286047004.4,N
1642502455.0,286047002.5,N
1642502455.9,286047002.5,N
1642502475.8,286047000.5,N
1642502495.6,286047001.2,N
1642502515.5,286046999.9,N
1642502535.3,286047000.3,N
1642502555.1,286047005.6,Y
1642502575.9,286047008.7,P
1642502595.7,286047009.0,N
1642502615.5,286047010.6,P
1642502635.4,286047005.2,N
1642502655.2,286047004.0,N
1642502675.1,286047002.7,N
1642502676.0,286047002.7,N
1642502695.8,286047000.2,N
1642502715.6,286047003.8,N
1642502735.5,286047002.0,N
1642502755.3,286047000.2,N
1642502775.1,286047002.7,N
1642502795.9,286047000.6,N
1642502815.7,286047002.8,N
1642502835.6,286047001.1,N
1642502855.4,286046998.5,N
1642502875.2,286046996.6,N
1642502895.1,286046999.2,N
1642502896.0,286046999.2,N
1642502915.8,286046995.5,N
1642502935.7,286046995.1,N
1642502955.5,286046993.5,N
1642502975.3,286046993.9,N
1642502995.2,286046993.3,N
1642503015.9,286046986.3,N
1642503035.7,286046994.4,N
1642503055.6,286046996.3,N
1642503075.4,286046994.8,N
1642503095.2,286046994.5,N
1642503115.1,286046986.3,N
1642503116.0,286046992.3,N
1642503135.8,286046996.0,N
1642503155.7,286046995.7,N
1642503175.5,286046995.8,N
1642503195.3,286046995.1,N
1642503215.2,286046996.1,N
1642503235.0,286046995.2,N
1642503235.9,286046995.2,N
1642503255.8,286046996.3,N
1642503275.6,286046996.0,N
1642503295.4,286046996.4,N
1642503315.3,286046997.3,N
1642503335.1,286046997.1,N
1642503355.8,286046999.1,N
1642503375.7,286046998.7,N
1642503395.5,286047001.0,N
1642503415.4,286047000.7,N
1642503435.2,286047000.3,N
1642503455.0,286047000.8,N
1642503455.9,286047000.8,N
1642503475.8,286046998.2,N
1642503495.6,286047000.9,N
1642503515.4,286047002.6,N
1642503535.3,286047000.6,N
1642503555.1,286046998.1,N
1642503575.9,286047000.0,N
1642503595.7,286047000.4,N
